Location: Spruce Knob
(38.6995°N, 79.5330°W)
Time: 15:14:51
(UTC-05:00)

Vanguard 1 - Visible Passes

Search period start: 25 January 2022 00:00
Search period end: 04 February 2022 00:00
Orbit: 652 x 3830 km, 34.2° (Epoch: 24 January)

Date Brightness Start Highest point End Pass type
(mag) Time Alt. Az. Time Alt. Az. Time Alt. Az.
28 Jan 14.0 05:48:13 10° S 05:55:54 15° SSE 06:01:56 10° ESE visible
29 Jan 13.7 06:06:05 10° S 06:17:08 21° SSE 06:24:52 10° ESE visible
30 Jan 13.4 06:25:10 10° SSW 06:38:19 28° SSE 06:46:47 10° E visible
31 Jan 14.1 04:28:27 10° SSE 04:36:04 14° SE 04:42:25 10° ESE visible
31 Jan 13.1 06:44:57 10° SSW 06:59:28 35° SSE 07:08:14 10° E visible
01 Feb 13.9 04:45:14 10° S 04:57:18 20° SSE 05:06:19 10° ESE visible
02 Feb 13.6 05:03:43 10° SSW 05:18:31 26° SSE 05:28:43 10° E visible
03 Feb 14.2 03:10:56 10° SSE 03:15:43 11° SE 03:20:08 10° SE visible
03 Feb 13.3 05:23:04 10° SSW 05:39:42 33° SSE 05:50:27 10° E visible
